Tracking 28518 objects as of 1-Mar-2024
HD Live streaming from Space Station
objects crossing your sky now

STARLINK-1600

Track STARLINK-1600 now!
10-day predictions
STARLINK-1600 is classified as:


NORAD ID: 46161
Int'l Code: 2020-057AW
Perigee: 553.3 km
Apogee: 555.4 km
Inclination: 53.1 °
Period: 95.6 minutes
Semi major axis: 6925 km
RCS: Unknown
Launch date: August 18, 2020
Source: United States (US)
Launch site: AIR FORCE EASTERN TEST RANGE (AFETR)
Your satellite tracking list
Your tracking list is empty




NASA's NSSDC Master Catalog

Two Line Element Set (TLE):
1 46161U 20057AW  24061.15790919  .00001273  00000-0  10434-3 0  9994
2 46161  53.0566  12.0154 0001453 102.1379 257.9773 15.06399419195691
Source of the keplerian elements: AFSPC